Terminal Aerodrome Forecast
Issued by NWS Topeka, KS

Home | Current Version | Previous Version | Graphics & Text | Print | Product List | Glossary On
Versions: 1 2 3 4 5 6 7 8 9 10 11 12 13 14 15 16 17 18 19
000
FTUS43 KTOP 250900 AAC
TAFTOP
TAF AMD
KTOP 250901Z 2509/2606 VRB04KT P6SM VCTS SCT100CB
      TEMPO 2509/2510 30010KT 6SM -TSRA BR BKN060 OVC090CB
     FM251100 15008KT P6SM FEW060 BKN100=

USA.gov is the U.S. government's official web portal to all federal, state and local government web resources and services.